Time,TemperatureF,DewpointF,PressureIn,WindDirection,WindDirectionDegrees,WindSpeedMPH,WindSpeedGustMPH,Humidity,HourlyPrecipIn,Conditions,Clouds,dailyrainin,SoftwareType,DateUTC
2013-07-22 00:01:00,77.0,72.0,30.13,SSE,158,0.0,3.0,85,0.00,,,0.00,,2013-07-22 04:01:00,
2013-07-22 00:12:00,76.0,71.0,30.13,SSE,158,0.0,2.0,85,0.00,,,0.00,,2013-07-22 04:12:00,
2013-07-22 00:22:00,76.0,72.0,30.13,SSE,158,0.0,1.0,86,0.00,,,0.00,,2013-07-22 04:22:00,
2013-07-22 00:33:00,76.0,72.0,30.13,SSE,158,0.0,0.0,86,0.00,,,0.00,,2013-07-22 04:33:00,
2013-07-22 00:43:00,76.0,72.0,30.13,SSE,158,0.0,0.0,86,0.00,,,0.00,,2013-07-22 04:43:00,
2013-07-22 01:02:00,76.0,72.0,30.13,SSE,158,0.0,1.0,86,0.00,,,0.00,,2013-07-22 05:02:00,
2013-07-22 01:11:00,76.0,72.0,30.12,SSE,158,0.0,3.0,87,0.00,,,0.00,,2013-07-22 05:11:00,
2013-07-22 01:22:00,76.0,72.0,30.12,SSE,158,0.0,1.0,87,0.00,,,0.00,,2013-07-22 05:22:00,
2013-07-22 01:32:00,76.0,72.0,30.11,SSE,158,0.0,0.0,87,0.00,,,0.00,,2013-07-22 05:32:00,
2013-07-22 01:43:00,76.0,72.0,30.11,SSE,158,0.0,0.0,87,0.00,,,0.00,,2013-07-22 05:43:00,
2013-07-22 01:52:00,76.0,72.0,30.11,SSE,158,0.0,0.0,88,0.00,,,0.00,,2013-07-22 05:52:00,
2013-07-22 02:01:00,76.0,72.0,30.11,SSE,158,0.0,2.0,88,0.00,,,0.00,,2013-07-22 06:01:00,
2013-07-22 02:11:00,76.0,72.0,30.11,SSE,158,0.0,0.0,88,0.00,,,0.00,,2013-07-22 06:11:00,
2013-07-22 02:22:00,76.0,72.0,30.11,SSE,158,0.0,0.0,88,0.00,,,0.00,,2013-07-22 06:22:00,
2013-07-22 02:33:00,76.0,72.0,30.10,SSE,158,0.0,0.0,88,0.00,,,0.00,,2013-07-22 06:33:00,
2013-07-22 02:43:00,76.0,72.0,30.10,SSE,158,0.0,0.0,88,0.00,,,0.00,,2013-07-22 06:43:00,
2013-07-22 02:52:00,76.0,73.0,30.10,SSE,158,0.0,0.0,89,0.00,,,0.00,,2013-07-22 06:52:00,
2013-07-22 03:01:00,76.0,73.0,30.09,SSE,158,0.0,2.0,89,0.00,,,0.00,,2013-07-22 07:01:00,
2013-07-22 03:12:00,75.0,72.0,30.09,SSE,158,0.0,0.0,89,0.00,,,0.00,,2013-07-22 07:12:00,
2013-07-22 03:22:00,75.0,72.0,30.09,SSE,158,0.0,0.0,89,0.00,,,0.00,,2013-07-22 07:22:00,
2013-07-22 03:33:00,75.0,72.0,30.09,SSE,158,0.0,2.0,89,0.00,,,0.00,,2013-07-22 07:33:00,
2013-07-22 03:43:00,75.0,72.0,30.09,SSE,158,0.0,2.0,90,0.00,,,0.00,,2013-07-22 07:43:00,
2013-07-22 03:52:00,75.0,72.0,30.08,SSE,158,0.0,0.0,90,0.00,,,0.00,,2013-07-22 07:52:00,
2013-07-22 04:02:00,75.0,72.0,30.08,SSE,158,0.0,1.0,90,0.00,,,0.00,,2013-07-22 08:02:00,
2013-07-22 04:11:00,75.0,72.0,30.08,SSE,158,0.0,0.0,90,0.00,,,0.00,,2013-07-22 08:11:00,
2013-07-22 04:22:00,75.0,72.0,30.08,SSE,158,0.0,0.0,91,0.00,,,0.00,,2013-07-22 08:22:00,
2013-07-22 04:32:00,75.0,72.0,30.08,SSE,158,0.0,0.0,91,0.00,,,0.00,,2013-07-22 08:32:00,
2013-07-22 04:43:00,75.0,72.0,30.08,SSE,158,0.0,0.0,91,0.00,,,0.00,,2013-07-22 08:43:00,
2013-07-22 04:52:00,75.0,72.0,30.07,SSE,158,0.0,0.0,91,0.00,,,0.00,,2013-07-22 08:52:00,
2013-07-22 05:02:00,75.0,72.0,30.08,SSE,158,0.0,0.0,91,0.00,,,0.00,,2013-07-22 09:02:00,
2013-07-22 05:11:00,74.0,72.0,30.08,SSE,158,0.0,0.0,92,0.00,,,0.00,,2013-07-22 09:11:00,
2013-07-22 05:22:00,74.0,72.0,30.08,SSE,158,0.0,0.0,92,0.00,,,0.00,,2013-07-22 09:22:00,
2013-07-22 05:33:00,74.0,72.0,30.08,SSE,158,0.0,0.0,92,0.00,,,0.00,,2013-07-22 09:33:00,
2013-07-22 05:42:00,74.0,72.0,30.08,SSE,158,0.0,0.0,92,0.00,,,0.00,,2013-07-22 09:42:00,
2013-07-22 05:52:00,74.0,72.0,30.08,SSE,158,0.0,0.0,92,0.00,,,0.00,,2013-07-22 09:52:00,
2013-07-22 06:02:00,74.0,72.0,30.08,SSE,158,0.0,0.0,92,0.00,,,0.00,,2013-07-22 10:02:00,
2013-07-22 06:11:00,74.0,72.0,30.09,SSE,158,0.0,3.0,92,0.00,,,0.00,,2013-07-22 10:11:00,
2013-07-22 06:22:00,74.0,72.0,30.09,SSE,158,0.0,3.0,93,0.00,,,0.00,,2013-07-22 10:22:00,
2013-07-22 06:32:00,74.0,72.0,30.09,SSE,158,0.0,0.0,93,0.00,,,0.00,,2013-07-22 10:32:00,
2013-07-22 06:43:00,74.0,72.0,30.09,SSE,158,0.0,0.0,93,0.00,,,0.00,,2013-07-22 10:43:00,
2013-07-22 06:52:00,74.0,72.0,30.10,SSE,158,0.0,1.0,93,0.00,,,0.00,,2013-07-22 10:52:00,
2013-07-22 07:02:00,74.0,72.0,30.10,SSE,158,0.0,1.0,93,0.00,,,0.00,,2013-07-22 11:02:00,
2013-07-22 07:11:00,74.0,72.0,30.10,SSE,158,0.0,0.0,93,0.00,,,0.00,,2013-07-22 11:11:00,
2013-07-22 07:23:00,75.0,73.0,30.10,SSE,158,0.0,1.0,93,0.00,,,0.00,,2013-07-22 11:23:00,
2013-07-22 07:32:00,75.0,73.0,30.11,SSE,158,0.0,0.0,93,0.00,,,0.00,,2013-07-22 11:32:00,
2013-07-22 07:43:00,75.0,73.0,30.11,SSE,158,0.0,1.0,93,0.00,,,0.00,,2013-07-22 11:43:00,
2013-07-22 07:52:00,75.0,73.0,30.11,SSE,158,0.0,1.0,93,0.00,,,0.00,,2013-07-22 11:52:00,
2013-07-22 08:02:00,75.0,73.0,30.11,SSE,158,1.0,4.0,93,0.00,,,0.00,,2013-07-22 12:02:00,
2013-07-22 08:11:00,76.0,74.0,30.11,SSE,161,0.0,4.0,93,0.00,,,0.00,,2013-07-22 12:11:00,
2013-07-22 08:22:00,76.0,74.0,30.12,SSE,161,0.0,3.0,93,0.00,,,0.00,,2013-07-22 12:22:00,
2013-07-22 08:33:00,76.0,74.0,30.12,SSE,167,0.0,3.0,92,0.00,,,0.00,,2013-07-22 12:33:00,
2013-07-22 08:43:00,77.0,74.0,30.12,South,176,0.0,5.0,91,0.00,,,0.00,,2013-07-22 12:43:00,
2013-07-22 08:53:00,78.0,75.0,30.13,West,260,2.0,4.0,90,0.00,,,0.00,,2013-07-22 12:53:00,
2013-07-22 09:01:00,78.0,75.0,30.13,West,259,0.0,1.0,90,0.00,,,0.00,,2013-07-22 13:01:00,
2013-07-22 09:11:00,78.0,75.0,30.13,West,260,1.0,2.0,90,0.00,,,0.00,,2013-07-22 13:11:00,
2013-07-22 09:43:00,80.0,76.0,30.13,SW,232,1.0,4.0,87,0.00,,,0.00,,2013-07-22 13:43:00,
2013-07-22 09:53:00,81.0,76.0,30.13,WSW,240,0.0,4.0,86,0.00,,,0.00,,2013-07-22 13:53:00,
2013-07-22 10:32:00,82.0,76.0,30.13,WNW,282,1.0,8.0,82,0.00,,,0.00,,2013-07-22 14:32:00,
2013-07-22 10:53:00,83.0,76.0,30.13,West,271,0.0,10.0,80,0.00,,,0.00,,2013-07-22 14:53:00,
2013-07-22 11:52:00,85.0,76.0,30.13,SSW,195,1.0,7.0,74,0.00,,,0.00,,2013-07-22 15:52:00,
2013-07-22 12:43:00,88.0,76.0,30.13,West,264,3.0,7.0,67,0.00,,,0.00,,2013-07-22 16:43:00,
2013-07-22 13:43:00,91.0,76.0,30.11,WNW,296,1.0,10.0,61,0.00,,,0.00,,2013-07-22 17:43:00,
2013-07-22 13:52:00,92.0,76.0,30.11,NNW,338,2.0,9.0,60,0.00,,,0.00,,2013-07-22 17:52:00,
2013-07-22 17:43:00,83.0,76.0,30.09,NNE,13,0.0,2.0,80,0.00,,,0.04,,2013-07-22 21:43:00,
2013-07-22 18:43:00,78.0,70.0,30.11,SE,132,0.0,2.0,77,0.00,,,0.04,,2013-07-22 22:43:00,
2013-07-22 19:01:00,78.0,71.0,30.10,SE,132,0.0,0.0,79,0.00,,,0.04,,2013-07-22 23:01:00,
2013-07-22 19:32:00,78.0,72.0,30.09,SE,132,0.0,0.0,81,0.00,,,0.04,,2013-07-22 23:32:00,
2013-07-22 19:42:00,78.0,71.0,30.09,SE,132,0.0,1.0,80,0.00,,,0.04,,2013-07-22 23:42:00,
2013-07-22 19:52:00,78.0,71.0,30.09,SE,132,0.0,2.0,80,0.00,,,0.04,,2013-07-22 23:52:00,
2013-07-22 20:01:00,78.0,71.0,30.09,SE,132,0.0,3.0,80,0.00,,,0.04,,2013-07-23 00:01:00,
2013-07-22 20:12:00,78.0,72.0,30.09,SE,132,0.0,2.0,81,0.00,,,0.04,,2013-07-23 00:12:00,
2013-07-22 20:32:00,78.0,72.0,30.09,SE,132,0.0,2.0,81,0.00,,,0.04,,2013-07-23 00:32:00,
2013-07-22 20:43:00,78.0,72.0,30.09,SE,132,0.0,2.0,82,0.00,,,0.04,,2013-07-23 00:43:00,
2013-07-22 20:52:00,78.0,72.0,30.09,SE,132,0.0,2.0,83,0.00,,,0.04,,2013-07-23 00:52:00,
2013-07-22 21:01:00,77.0,72.0,30.08,SE,132,0.0,0.0,84,0.00,,,0.04,,2013-07-23 01:01:00,
2013-07-22 21:43:00,76.0,72.0,30.09,SE,132,0.0,0.0,87,0.00,,,0.04,,2013-07-23 01:43:00,
2013-07-22 23:43:00,76.0,72.0,30.11,SE,132,0.0,0.0,88,0.00,,,0.04,,2013-07-23 03:43:00,